Vorticity
5 3 4 5 4 6 10 8 5 5 6 4 4 3 3 -0 2 -1 -0 2 1 3 2 1 2 -3 6 2 2 7 2 6 4 8 9 10 9 9 6 2 -2 5 13 16 21 17 13
5 5 5 5 8 6 11 10 5 5 6 -1 5 -1 1 1 3 1 3 0 1 2 2 1 8 1 4 5 6 2 6 8 9 8 9 7 7 5 6 13 19 20 17 17 32 41 43
5 6 7 9 14 8 8 7 4 5 3 2 2 0 -0 2 -0 2 -1 1 6 5 5 4 3 13 1 4 4 5 6 10 7 9 6 6 8 11 22 37 44 46 46 41 41 36 38
3 7 10 9 12 8 6 4 6 4 6 8 -1 2 1 2 -0 1 -2 1 5 4 5 5 2 0 10 5 2 4 11 9 6 7 8 10 26 46 47 56 29 35 28 40 45 50 45
3 4 13 8 13 7 5 6 5 4 7 4 -0 -1 1 1 -2 3 0 1 3 5 3 5 13 -1 5 3 7 8 9 9 5 10 13 34 33 40 14 15 1 11 8 14 28 10 35
6 8 11 10 11 7 7 6 4 6 6 -0 5 -0 -0 2 2 7 5 3 -0 5 2 -1 4 7 4 2 7 9 7 6 11 14 33 43 43 20 -3 4 11 14 8 25 13 19 13
8 13 11 12 9 8 5 5 5 7 5 1 5 3 3 5 5 5 4 4 3 -4 6 5 -0 4 5 9 9 5 7 7 13 32 45 22 26 -3 3 19 10 16 2 26 38 25 6
13 10 12 12 9 4 6 5 6 6 4 5 6 5 -0 1 2 0 3 5 5 2 6 14 4 5 3 7 9 6 5 10 16 51 24 29 12 9 11 17 14 18 13 -1 9 9 28
10 12 14 10 4 4 6 6 8 6 7 9 5 -0 4 5 6 1 1 1 4 7 3 -2 2 5 8 7 9 7 12 12 28 38 34 20 3 10 18 17 14 0 20 14 6 14 16
12 13 8 4 2 4 6 7 8 7 8 6 2 4 2 3 7 3 -1 1 3 4 3 -6 3 2 5 7 7 5 9 32 36 31 28 12 8 11 17 12 11 9 9 19 29 -1 17
8 8 6 4 4 5 6 9 7 9 8 -0 4 7 7 5 10 4 2 5 5 6 21 8 5 4 4 11 5 8 12 30 33 20 26 6 8 10 5 5 10 20 8 27 27 9 4
7 6 6 7 10 11 9 8 5 7 -1 5 6 -0 -1 3 4 5 6 5 3 7 5 7 4 6 9 7 5 9 15 43 27 27 10 10 7 7 7 2 7 17 20 23 5 17 27
7 9 9 12 10 9 8 3 13 3 6 5 1 5 0 -1 6 8 5 -0 8 10 5 -5 7 8 7 6 9 9 19 34 31 25 17 6 4 10 9 12 9 15 27 29 6 17 23
9 9 8 10 11 8 6 12 5 6 4 2 2 4 -0 -1 6 7 4 9 3 9 9 9 7 9 6 7 7 12 32 38 15 30 6 15 4 8 4 10 9 11 16 15 15 18 40
8 10 12 9 8 9 9 3 3 2 2 2 2 4 0 3 8 7 4 6 8 10 8 5 8 7 7 7 11 21 44 40 11 27 8 5 5 9 8 10 4 8 13 18 16 8 3
8 9 10 8 4 7 4 3 3 5 2 1 -0 2 2 4 4 7 5 7 10 10 7 5 7 9 9 7 12 18 35 45 10 25 4 3 0 9 9 12 7 9 14 19 6 0 3
8 8 4 4 5 1 2 3 -2 3 2 4 4 2 1 2 3 9 6 10 10 9 7 9 7 7 6 7 12 17 17 29 16 21 7 6 3 9 8 8 8 8 12 8 9 11 -9
8 6 5 5 6 0 5 5 4 5 4 4 0 2 2 1 6 9 6 10 9 7 5 5 8 8 7 5 12 23 34 29 17 13 15 5 2 4 6 9 9 9 12 6 7 18 9
5 8 5 6 3 4 5 6 2 2 2 2 3 2 5 3 4 9 5 11 12 9 5 5 8 8 7 7 15 24 33 27 17 3 24 3 5 5 8 8 11 9 11 11 19 26 6
6 6 5 4 6 9 -0 -0 1 3 -0 3 5 6 6 3 10 6 6 8 12 7 6 6 7 7 7 10 11 22 32 23 16 8 32 3 2 2 5 5 7 9 9 11 11 11 11
1 3 4 5 4 6 4 3 1 1 3 3 6 2 1 4 8 7 10 11 12 6 6 9 7 8 5 8 14 20 26 38 11 8 19 6 4 5 7 6 13 5 4 8 11 12 20
4 2 3 4 3 3 0 2 4 2 3 4 0 6 1 6 8 6 7 10 11 4 7 8 11 6 5 8 10 21 44 33 13 7 4 13 5 3 10 6 8 6 12 7 15 10 17
9 7 5 3 5 1 3 -0 3 2 2 3 -0 6 6 8 8 9 7 10 9 6 6 9 9 6 6 7 11 17 39 30 18 8 1 19 4 6 4 7 2 11 10 10 19 15 8
11 9 5 7 6 3 0 3 4 3 -0 1 2 2 6 6 7 11 8 12 10 3 8 9 9 7 6 7 10 23 36 32 22 8 7 30 4 5 5 3 5 11 7 14 6 22 11
4 9 7 10 6 3 5 6 3 2 1 2 -1 3 4 3 9 9 8 11 11 3 8 11 8 6 6 6 10 18 24 31 22 15 6 26 8 4 6 3 5 5 11 16 9 14 9
4 6 3 2 4 5 3 4 1 3 2 2 -0 3 -1 2 12 9 10 12 8 4 9 9 8 6 6 6 9 10 30 40 23 11 7 23 9 3 6 1 4 2 10 13 18 12 15
1 0 3 0 4 2 2 2 1 2 3 2 0 3 2 1 13 8 12 13 7 4 11 9 5 7 6 6 11 16 27 40 16 14 5 9 21 9 5 3 -0 5 6 12 6 15 23
1 2 3 4 3 3 1 4 2 5 3 7 -1 3 6 4 10 11 14 9 6 5 10 5 9 8 5 7 12 12 31 35 22 16 7 4 18 14 5 5 -1 5 7 10 9 9 17
3 9 5 8 2 5 3 4 1 3 4 8 1 7 4 9 9 11 10 11 4 8 10 6 7 7 6 7 10 16 27 31 23 18 12 5 8 11 15 5 5 2 6 11 8 12 4
Height
5832 5831 5830 5830 5829 5828 5827 5827 5826 5825 5824 5823 5821 5820 5817 5814 5810 5806 5801 5795 5789 5784 5778 5772 5766 5759 5751 5743 5736 5727 5719 5709 5699 5688 5678 5668 5659 5649 5639 5626 5614 5602 5597 5593 5594 5595 5591
5830 5830 5828 5827 5827 5826 5825 5825 5824 5823 5822 5821 5819 5817 5814 5811 5806 5802 5797 5791 5785 5779 5772 5765 5758 5751 5742 5735 5724 5714 5702 5692 5682 5670 5660 5646 5635 5623 5611 5597 5581 5566 5555 5548 5546 5554 5554
5829 5828 5826 5825 5824 5823 5823 5822 5821 5821 5820 5819 5817 5813 5811 5807 5804 5799 5793 5786 5780 5773 5766 5759 5750 5742 5733 5724 5711 5699 5688 5675 5661 5648 5635 5621 5606 5590 5573 5557 5541 5527 5517 5511 5508 5513 5513
5826 5825 5824 5823 5821 5821 5820 5819 5818 5818 5817 5816 5814 5811 5807 5803 5800 5795 5788 5781 5775 5767 5759 5750 5742 5732 5720 5707 5696 5685 5670 5655 5640 5626 5612 5595 5575 5556 5542 5530 5522 5508 5501 5487 5487 5477 5475
5823 5822 5821 5820 5819 5818 5818 5817 5816 5816 5815 5813 5811 5808 5804 5799 5795 5790 5783 5776 5769 5761 5751 5742 5733 5721 5708 5696 5683 5668 5654 5641 5625 5607 5588 5568 5551 5537 5525 5515 5508 5501 5489 5480 5473 5463 5454
5820 5819 5818 5817 5817 5816 5815 5815 5814 5813 5812 5810 5807 5804 5800 5795 5790 5785 5778 5770 5762 5755 5744 5732 5721 5711 5698 5685 5669 5654 5638 5622 5604 5584 5563 5548 5534 5525 5516 5507 5498 5489 5482 5474 5460 5456 5446
5817 5816 5815 5814 5814 5814 5814 5814 5813 5811 5810 5807 5804 5801 5796 5791 5786 5780 5772 5763 5757 5748 5734 5723 5712 5699 5686 5672 5656 5642 5624 5607 5583 5561 5547 5534 5525 5518 5511 5501 5491 5481 5473 5463 5457 5447 5435
5813 5813 5812 5811 5812 5812 5812 5812 5810 5809 5807 5805 5802 5798 5793 5787 5782 5774 5766 5756 5748 5740 5728 5714 5702 5689 5675 5660 5646 5628 5610 5593 5573 5551 5537 5528 5519 5513 5504 5494 5484 5475 5465 5458 5451 5440 5431
5810 5809 5809 5809 5810 5810 5810 5809 5807 5806 5804 5802 5800 5796 5790 5785 5778 5770 5760 5751 5741 5730 5719 5704 5693 5680 5666 5648 5632 5617 5598 5579 5560 5541 5530 5521 5515 5507 5499 5489 5480 5469 5460 5451 5442 5437 5427
5808 5807 5807 5808 5807 5807 5806 5805 5804 5802 5800 5798 5796 5791 5786 5780 5774 5764 5753 5743 5733 5721 5710 5699 5684 5670 5655 5637 5622 5602 5583 5563 5544 5532 5524 5517 5510 5502 5493 5484 5475 5466 5456 5445 5437 5431 5425
5805 5805 5805 5805 5804 5804 5803 5802 5801 5799 5797 5795 5791 5786 5780 5772 5764 5755 5747 5736 5725 5713 5702 5690 5676 5661 5643 5629 5611 5592 5576 5554 5538 5524 5516 5514 5507 5498 5490 5479 5470 5460 5448 5441 5435 5428 5424
5803 5802 5803 5802 5802 5801 5800 5799 5797 5796 5794 5791 5785 5781 5774 5767 5759 5750 5740 5729 5718 5708 5693 5682 5668 5654 5638 5618 5600 5582 5566 5547 5535 5522 5512 5508 5503 5495 5484 5476 5466 5457 5446 5440 5431 5425 5420
5800 5799 5799 5799 5799 5798 5797 5796 5795 5793 5790 5786 5782 5776 5770 5762 5753 5744 5734 5725 5714 5700 5687 5675 5662 5646 5631 5612 5591 5572 5557 5540 5527 5521 5515 5507 5500 5490 5483 5477 5468 5456 5442 5433 5430 5424 5417
5796 5796 5796 5795 5796 5795 5794 5793 5792 5789 5786 5783 5777 5771 5764 5756 5747 5738 5729 5718 5706 5693 5681 5668 5653 5638 5623 5605 5588 5567 5549 5533 5521 5516 5511 5504 5496 5489 5482 5474 5464 5452 5443 5434 5428 5421 5417
5794 5793 5793 5793 5793 5792 5791 5790 5788 5785 5782 5778 5772 5766 5759 5751 5741 5732 5723 5711 5698 5687 5676 5662 5648 5632 5616 5597 5578 5562 5543 5532 5520 5514 5510 5504 5497 5490 5480 5472 5464 5454 5446 5439 5427 5422 5416
5790 5790 5790 5790 5790 5789 5788 5787 5784 5781 5777 5773 5767 5760 5754 5746 5735 5726 5718 5706 5694 5682 5668 5654 5641 5626 5609 5595 5577 5559 5541 5532 5522 5513 5509 5505 5499 5489 5482 5475 5464 5455 5448 5436 5430 5421 5413
5787 5787 5787 5787 5787 5786 5785 5783 5780 5777 5772 5768 5762 5756 5748 5739 5730 5722 5712 5701 5689 5676 5664 5650 5636 5621 5604 5589 5571 5555 5539 5529 5522 5515 5509 5503 5499 5492 5483 5473 5463 5455 5446 5438 5433 5425 5414
5784 5784 5783 5783 5783 5782 5781 5779 5775 5771 5767 5762 5757 5751 5743 5735 5728 5717 5705 5693 5683 5671 5659 5645 5631 5617 5601 5587 5570 5551 5537 5524 5521 5515 5509 5503 5498 5490 5484 5474 5465 5458 5449 5440 5434 5428 5415
5779 5780 5779 5779 5779 5778 5776 5773 5770 5766 5762 5757 5752 5746 5738 5730 5720 5710 5699 5689 5679 5665 5653 5639 5626 5613 5597 5584 5567 5548 5535 5524 5521 5514 5508 5503 5495 5489 5485 5478 5469 5460 5452 5445 5439 5429 5418
5775 5775 5775 5775 5774 5772 5770 5768 5765 5761 5756 5751 5747 5740 5734 5725 5715 5705 5694 5684 5672 5660 5649 5637 5623 5611 5597 5579 5561 5549 5534 5524 5518 5513 5508 5503 5497 5491 5486 5478 5471 5464 5455 5449 5441 5434 5426
5770 5771 5771 5770 5768 5766 5764 5762 5759 5755 5750 5746 5741 5734 5725 5716 5708 5699 5690 5678 5667 5655 5645 5632 5619 5607 5595 5582 5566 5549 5532 5525 5518 5512 5508 5504 5500 5495 5489 5484 5478 5469 5460 5454 5447 5440 5430
5764 5765 5765 5764 5763 5760 5758 5756 5753 5749 5745 5740 5734 5728 5720 5712 5703 5695 5684 5673 5661 5650 5641 5629 5616 5603 5590 5577 5562 5549 5534 5524 5519 5511 5508 5504 5501 5496 5492 5486 5481 5472 5468 5461 5452 5446 5439
5758 5758 5758 5757 5756 5754 5752 5750 5746 5743 5739 5734 5729 5722 5715 5707 5698 5688 5677 5667 5656 5647 5637 5625 5614 5602 5588 5576 5559 5544 5531 5522 5518 5513 5508 5503 5502 5498 5492 5487 5482 5477 5472 5464 5458 5450 5444
5752 5752 5752 5751 5750 5748 5746 5743 5740 5737 5733 5729 5724 5717 5709 5700 5691 5681 5671 5662 5652 5643 5633 5621 5611 5599 5588 5573 5558 5545 5529 5521 5516 5512 5508 5504 5501 5498 5495 5490 5483 5481 5476 5470 5463 5458 5452
5746 5746 5746 5745 5744 5741 5740 5736 5733 5730 5726 5722 5717 5711 5703 5694 5685 5677 5667 5657 5648 5638 5628 5618 5607 5597 5585 5573 5560 5545 5532 5522 5516 5513 5508 5504 5502 5499 5496 5491 5488 5482 5480 5476 5469 5464 5459
5739 5740 5739 5738 5736 5734 5732 5729 5726 5723 5719 5714 5709 5704 5697 5689 5680 5670 5662 5652 5643 5633 5624 5614 5603 5593 5582 5570 5557 5543 5532 5520 5516 5512 5508 5506 5502 5501 5498 5494 5490 5487 5484 5480 5476 5469 5466
5733 5733 5732 5731 5729 5726 5724 5721 5718 5715 5710 5707 5702 5697 5690 5682 5674 5665 5657 5648 5638 5629 5620 5610 5601 5590 5579 5567 5554 5541 5528 5519 5515 5511 5508 5505 5502 5500 5498 5496 5494 5491 5488 5485 5485 5481 5472
5726 5726 5725 5724 5722 5719 5716 5713 5710 5706 5703 5700 5696 5690 5684 5676 5667 5659 5650 5642 5633 5624 5615 5606 5598 5587 5576 5565 5552 5539 5526 5518 5512 5509 5507 5505 5503 5500 5499 5498 5498 5493 5492 5491 5487 5484 5481
5717 5718 5717 5716 5713 5711 5709 5705 5702 5699 5696 5693 5689 5683 5676 5669 5661 5652 5644 5637 5629 5620 5611 5601 5593 5584 5572 5561 5548 5536 5525 5515 5511 5508 5506 5504 5502 5500 5499 5498 5497 5495 5493 5492 5489 5488 5486